This demonstration page uses our WeatherBlox Daily Observations layout. Learn more.

Left ArrowRight Arrow

Hourly Observations for June 6, 2015

Temp ( °F °C ) Dew Point ( °F °C ) Humidity (%) Winds ( mph kmh ) Pressure ( in mb ) Visibility ( mi km ) Precip ( " mm )
12:53 am 00:53 Clear 56 13.3 53 11.7 90 90 Calm 29.91 1013 10 16 0.00 0.00
1:53 am 01:53 Clear 51 10.6 49 9.4 92 92 WNW 3 6 29.92 1013 10 16 0.00 0.00
2:53 am 02:53 Clear 52 11.1 50 10 93 93 Calm 29.92 1013 10 16 0.00 0.00
3:53 am 03:53 Clear 50 10 49 9.4 96 96 WNW 3 6 29.93 1013 10 16 0.00 0.00
4:53 am 04:53 Clear 47 8.3 46 7.8 97 97 SW 7 11 29.93 1014 10 16 0.00 0.00
5:53 am 05:53 Sunny 48 8.9 47 8.3 96 96 WSW 5 7 29.94 1014 10 16 0.00 0.00
6:53 am 06:53 Sunny 53 11.7 51 10.6 93 93 W 7 11 29.94 1014 10 16 0.00 0.00
7:53 am 07:53 Sunny 57 13.9 53 11.7 87 87 SW 7 11 29.94 1014 10 16 0.00 0.00
8:53 am 08:53 Sunny 63 17.2 54 12.2 73 73 W 6 9 29.94 1014 10 16 0.00 0.00
9:53 am 09:53 Sunny 69 20.6 55 12.8 61 61 SW 8 13 29.92 1013 10 16 0.00 0.00
10:53 am 10:53 Sunny 73 22.8 54 12.2 51 51 SW 8 13 29.92 1013 10 16 0.00 0.00
11:53 am 11:53 Sunny 78 25.6 47 8.3 33 33 undefined N/A 29.90 1013 10 16 0.00 0.00
12:53 pm 12:53 Partly Cloudy 79 26.1 43 6.1 28 28 WNW 9 15 29.88 1012 10 16 0.00 0.00
1:53 pm 13:53 Partly Cloudy 79 26.1 41 5 26 26 N 9 15 29.87 1012 10 16 0.00 0.00
2:53 pm 14:53 Mostly Sunny 82 27.8 41 5 23 23 N 7 11 29.85 1011 10 16 0.00 0.00
3:53 pm 15:53 Mostly Cloudy 81 27.2 41 5 24 24 NNW 10 17 29.85 1011 10 16 0.00 0.00
4:53 pm 16:53 Mostly Cloudy 82 27.8 42 5.6 24 24 WSW 8 13 29.85 1011 10 16 0.00 0.00
5:53 pm 17:53 Cloudy 79 26.1 43 6.1 28 28 Calm 29.85 1011 10 16 0.00 0.00
6:53 pm 18:53 Cloudy 78 25.6 45 7.2 31 31 ENE 5 7 29.84 1011 10 16 0.00 0.00
7:53 pm 19:53 Mostly Cloudy 77 25 47 8.3 35 35 E 3 6 29.84 1011 10 16 0.00 0.00
8:53 pm 20:53 Sunny 69 20.6 51 10.6 53 53 SSE 6 9 29.85 1011 10 16 0.00 0.00
9:53 pm 21:53 Mostly Clear 63 17.2 54 12.2 73 73 S 12 19 29.86 1011 10 16 0.00 0.00
10:53 pm 22:53 Mostly Clear 59 15 52 11.1 78 78 VRB 3 6 29.87 1012 10 16 0.00 0.00
11:53 pm 23:53 Clear 59 15 51 10.6 75 75 SW 5 7 29.87 1011 10 16 0.00 0.00

Powered by AerisWeather